Aérodrome :
LOGIN :

S'inscrire | Disclaimer

   EN    FR    IT 

 










Légende :    VFR   VFR Marginal   IFR   IFR Intensif   IFR Très Intensif
Visi : 
Plafond : 
>= 8 km
>= 3000ft
5 à 8 km
1000 à 3000 ft
1500m à 5 km
500 à 1000 ft
800 à 1500m
200 à 500 ft
< 800m
< 200 ft
Symboles :   Orages  Brouillard  Fortes neiges  Fortes précipitations  Vent > 20 kt
SIGMETs :   Divers  Orages  Givrage  Turbulence  Onde Orograph.  Cendres Volcan.







- Altitude de l'aérodrome : 302 ft
- Code IATA : CGN


EDDK - Cologne Bonn

DERNIER METAR :
  • 210950Z VRB05KT CAVOK 22/03 Q1021 NOSIG

METARs EXPIRÉS :
  • 210920Z VRB03KT CAVOK 21/03 Q1021 NOSIG
  • 210850Z VRB03KT CAVOK 20/05 Q1022 NOSIG
  • 210820Z 09005KT 050V150 CAVOK 19/04 Q1022 NOSIG
  • 210750Z 10005KT 060V160 CAVOK 17/04 Q1022 NOSIG
  • 210720Z 10004KT 040V140 CAVOK 16/04 Q1022 NOSIG

TAF TAF EDDK
Valide du 21 à 06h jusqu'au 22 à 12h UTC


210500Z 2106/2212 08005KT CAVOK
BECMG 2207/2210 12010KT
Pas de NOTAMs connus pour ce terrain.



MET'MAP, la Météo Aéronautique d'un coup d'oeil ! - Copyright ORBIFLY Décembre 2007 - Disclaimer

ORBIFLY MET'MAP TEAM :

Programmation & Développement : Alexandra Zaïnal
Conception & Développement : Baudouin d'Aumeries
Co-Programmation & Développement : Marc-Olivier Méhu
Soutien technique & logistique : Manuel Goepfert

Contact : metmap@orbifly.com




SOURCES & CREDITS :

   NOAA